Location: Home
(42.5358°N, 72.7383°W)
Time: 18:20:05
(UTC-05:00)

Tiros 1 - Pass Details

Date: 08 December 2021
Orbit: 629 x 664 km, 48.4° (Epoch: 26 January)

Event Time Altitude Azimuth Distance (km) Brightness Sun altitude
Rises 18:39:39 0° 273° (W) 2,919 11.8 -25.3°
Reaches altitude 10° 18:42:04 10° 280° (W) 2,016 10.6 -25.8°
Enters shadow 18:45:59 41° 334° (NNW) 929 8.0 -26.5°
